TOM888 ENHD-EFKT

Flight info

Callsign TOM888
Flight time 1h 48m
Altitude 39000
Route ODINU DCT UTRUF DCT OSKOK T65 MAVIP DCT NITMU DCT BEGDO DCT EVIMI
Aircraft B738/M-SDE2E3FGHIRWXY/LB1

Departure

Time 2026-04-26 13:45
Airport Haugesund Airport, Karmøy (ENHD)

Arrival

Time 2026-04-26 15:33
Airport Kittilä International Airport (EFKT)
Time Latitude Longitude Altitude Speed Heading
2026-04-26 13:16 59.34421 5.21610 86 ft 0 kts 44°
2026-04-26 13:37 59.34409 5.21586 91 ft 4 kts 49°
2026-04-26 13:37 59.34396 5.21543 88 ft 4 kts 87°
2026-04-26 13:38 59.34402 5.21499 90 ft 3 kts 133°
2026-04-26 13:38 59.34404 5.21495 90 ft 1 kts 135°
2026-04-26 13:40 59.34400 5.21502 86 ft 1 kts 135°
2026-04-26 13:40 59.34389 5.21524 90 ft 5 kts 135°
2026-04-26 13:41 59.34338 5.21629 87 ft 15 kts 128°
2026-04-26 13:41 59.34269 5.21798 88 ft 15 kts 116°
2026-04-26 13:41 59.34202 5.21946 88 ft 12 kts 153°
2026-04-26 13:41 59.34148 5.21894 87 ft 2 kts 224°
2026-04-26 13:42 59.34146 5.21890 89 ft 1 kts 224°
2026-04-26 13:42 59.34123 5.21845 86 ft 10 kts 224°
2026-04-26 13:42 59.34035 5.21824 84 ft 18 kts 137°
2026-04-26 13:42 59.33932 5.22030 92 ft 24 kts 134°
2026-04-26 13:43 59.33817 5.22260 97 ft 23 kts 134°
2026-04-26 13:43 59.33767 5.22349 96 ft 4 kts 155°
2026-04-26 13:43 59.33744 5.22398 96 ft 5 kts 68°
2026-04-26 13:43 59.33767 5.22369 96 ft 6 kts 287°
2026-04-26 13:44 59.33789 5.22315 96 ft 5 kts 314°
2026-04-26 13:44 59.33890 5.22114 94 ft 55 kts 314°
2026-04-26 13:44 59.34344 5.21202 85 ft 128 kts 314°
2026-04-26 13:44 59.35071 5.19746 483 ft 154 kts 315°
2026-04-26 13:45 59.35834 5.18293 1515 ft 156 kts 316°
2026-04-26 13:45 59.36658 5.16770 2213 ft 175 kts 321°
2026-04-26 13:45 59.37876 5.15963 2530 ft 205 kts
2026-04-26 13:45 59.39142 5.17323 3140 ft 225 kts 46°
2026-04-26 13:46 59.39978 5.20131 3571 ft 250 kts 64°
2026-04-26 13:46 59.40638 5.23364 4400 ft 258 kts 67°
2026-04-26 13:46 59.41277 5.26678 5470 ft 261 kts 67°
2026-04-26 13:46 59.41930 5.30052 6416 ft 268 kts 66°
2026-04-26 13:47 59.42608 5.33504 7334 ft 274 kts 65°
2026-04-26 13:47 59.43312 5.37024 8204 ft 281 kts 65°
2026-04-26 13:47 59.44040 5.40623 9096 ft 286 kts 64°
2026-04-26 13:47 59.44778 5.44245 9984 ft 293 kts 64°
2026-04-26 13:48 59.45548 5.48003 10718 ft 302 kts 63°
2026-04-26 13:48 59.46375 5.52000 10958 ft 330 kts 63°
2026-04-26 13:48 59.47273 5.56336 11175 ft 355 kts 64°
2026-04-26 13:48 59.48222 5.60937 11684 ft 369 kts 64°
2026-04-26 13:49 59.49187 5.65651 12448 ft 374 kts 64°
2026-04-26 13:49 59.50164 5.70432 13245 ft 379 kts 64°
2026-04-26 13:49 59.51155 5.75287 14044 ft 385 kts 63°
2026-04-26 13:49 59.52142 5.80123 14690 ft 389 kts 64°
2026-04-26 13:50 59.53126 5.84955 15332 ft 392 kts 64°
2026-04-26 13:50 59.54144 5.89964 16020 ft 397 kts 64°
2026-04-26 13:50 59.55176 5.95055 16708 ft 402 kts 64°
2026-04-26 13:50 59.56217 6.00201 17378 ft 406 kts 64°
2026-04-26 13:51 59.57236 6.05249 18041 ft 410 kts 64°
2026-04-26 13:51 59.58295 6.10506 18616 ft 416 kts 65°
2026-04-26 13:51 59.59368 6.15848 19201 ft 420 kts 65°
2026-04-26 13:51 59.60432 6.21161 19842 ft 423 kts 65°
2026-04-26 13:52 59.61514 6.26582 20436 ft 427 kts 65°
2026-04-26 13:52 59.62606 6.32063 20986 ft 431 kts 65°
2026-04-26 13:52 59.63706 6.37600 21552 ft 435 kts 65°
2026-04-26 13:52 59.64814 6.43193 22134 ft 439 kts 65°
2026-04-26 13:53 59.65930 6.48835 22681 ft 443 kts 65°
2026-04-26 13:53 59.67054 6.54538 23224 ft 447 kts 65°
2026-04-26 13:53 59.68283 6.60180 23779 ft 446 kts 56°
2026-04-26 13:53 59.70207 6.64904 24213 ft 439 kts 39°
2026-04-26 13:54 59.72443 6.69032 24730 ft 440 kts 39°
2026-04-26 13:54 59.74690 6.73173 25187 ft 442 kts 39°
2026-04-26 13:54 59.76913 6.77300 25605 ft 445 kts 39°
2026-04-26 13:55 59.81434 6.85800 26464 ft 450 kts 39°
2026-04-26 13:55 59.82936 6.88651 26730 ft 452 kts 39°
2026-04-26 13:55 59.88272 6.98852 27690 ft 458 kts 39°
2026-04-26 13:56 59.90571 7.03268 28069 ft 460 kts 39°
2026-04-26 13:56 59.92880 7.07712 28443 ft 463 kts 39°
2026-04-26 13:56 59.95202 7.12190 28813 ft 465 kts 39°
2026-04-26 13:56 59.97500 7.16632 29167 ft 468 kts 39°
2026-04-26 13:57 59.99840 7.21161 29549 ft 469 kts 40°
2026-04-26 13:57 60.02182 7.25706 29994 ft 469 kts 40°
2026-04-26 13:57 60.04514 7.30242 30486 ft 467 kts 40°
2026-04-26 13:57 60.06835 7.34768 30942 ft 465 kts 40°
2026-04-26 13:58 60.09144 7.39278 31370 ft 463 kts 40°
2026-04-26 13:58 60.11451 7.43790 31717 ft 463 kts 40°
2026-04-26 13:58 60.13758 7.48309 32047 ft 464 kts 40°
2026-04-26 13:58 60.16032 7.52775 32427 ft 463 kts 40°
2026-04-26 13:59 60.18331 7.57299 32831 ft 462 kts 40°
2026-04-26 13:59 60.20621 7.61815 33212 ft 461 kts 40°
2026-04-26 13:59 60.22910 7.66338 33562 ft 461 kts 40°
2026-04-26 14:00 60.29744 7.79899 34642 ft 458 kts 40°
2026-04-26 14:00 60.32014 7.84421 34904 ft 459 kts 40°
2026-04-26 14:00 60.33519 7.87423 35065 ft 459 kts 40°
2026-04-26 14:01 60.36525 7.93436 35443 ft 459 kts 40°
2026-04-26 14:01 60.38791 7.97978 35739 ft 458 kts 40°
2026-04-26 14:01 60.41053 8.02522 36004 ft 459 kts 41°
2026-04-26 14:01 60.43314 8.07075 36256 ft 459 kts 41°
2026-04-26 14:02 60.45574 8.11634 36538 ft 458 kts 41°
2026-04-26 14:02 60.47825 8.16186 36872 ft 456 kts 40°
2026-04-26 14:02 60.50065 8.20727 37223 ft 454 kts 40°
2026-04-26 14:02 60.52298 8.25259 37492 ft 454 kts 40°
2026-04-26 14:03 60.54528 8.29796 37761 ft 454 kts 40°
2026-04-26 14:03 60.56757 8.34337 37999 ft 454 kts 40°
2026-04-26 14:03 60.58957 8.38830 38229 ft 454 kts 41°
2026-04-26 14:03 60.61184 8.43386 38474 ft 454 kts 41°
2026-04-26 14:04 60.63407 8.47946 38698 ft 454 kts 41°
2026-04-26 14:04 60.65631 8.52518 38909 ft 454 kts 41°
2026-04-26 14:04 60.67852 8.57093 39073 ft 454 kts 41°
2026-04-26 14:04 60.70070 8.61670 39220 ft 454 kts 41°
2026-04-26 14:05 60.72298 8.66276 39232 ft 457 kts 41°
2026-04-26 14:05 60.76761 8.75536 39257 ft 455 kts 41°
2026-04-26 14:06 60.81153 8.84691 39237 ft 452 kts 41°
2026-04-26 14:06 60.85541 8.93873 39235 ft 449 kts 41°
2026-04-26 14:07 60.89900 9.03031 39243 ft 448 kts 41°
2026-04-26 14:07 60.94241 9.12187 39231 ft 446 kts 41°
2026-04-26 14:08 60.98534 9.21282 39230 ft 446 kts 41°
2026-04-26 14:08 61.02857 9.30472 39272 ft 447 kts 41°
2026-04-26 14:09 61.07192 9.39745 39250 ft 450 kts 41°
2026-04-26 14:09 61.11534 9.49115 39240 ft 452 kts 41°
2026-04-26 14:10 61.15888 9.58558 39247 ft 455 kts 41°
2026-04-26 14:10 61.20229 9.68008 39245 ft 457 kts 41°
2026-04-26 14:11 61.26805 9.82396 39257 ft 459 kts 41°
2026-04-26 14:11 61.31189 9.92043 39247 ft 459 kts 41°
2026-04-26 14:12 61.35575 10.01732 39242 ft 459 kts 41°
2026-04-26 14:12 61.39915 10.11365 39242 ft 459 kts 41°
2026-04-26 14:13 61.46445 10.25935 39246 ft 457 kts 41°
2026-04-26 14:14 61.50779 10.35658 39234 ft 456 kts 41°
2026-04-26 14:14 61.55069 10.45323 39255 ft 455 kts 41°
2026-04-26 14:15 61.59367 10.55051 39240 ft 454 kts 41°
2026-04-26 14:15 61.63643 10.64772 39245 ft 452 kts 41°
2026-04-26 14:16 61.67898 10.74486 39242 ft 451 kts 41°
2026-04-26 14:16 61.72139 10.84209 39241 ft 450 kts 41°
2026-04-26 14:17 61.76332 10.93866 39238 ft 449 kts 41°
2026-04-26 14:17 61.80540 11.03597 39248 ft 449 kts 41°
2026-04-26 14:18 61.84743 11.13359 39243 ft 449 kts 41°
2026-04-26 14:18 61.88938 11.23148 39244 ft 449 kts 41°
2026-04-26 14:19 61.93139 11.32993 39239 ft 450 kts 41°
2026-04-26 14:19 61.97312 11.42816 39248 ft 451 kts 41°
2026-04-26 14:20 62.01517 11.52759 39245 ft 453 kts 42°
2026-04-26 14:20 62.05728 11.62760 39292 ft 454 kts 41°
2026-04-26 14:21 62.09949 11.72828 39255 ft 456 kts 42°
2026-04-26 14:21 62.14168 11.82944 39249 ft 456 kts 42°
2026-04-26 14:22 62.18350 11.93014 39254 ft 456 kts 42°
2026-04-26 14:22 62.22554 12.03181 39248 ft 455 kts 42°
2026-04-26 14:23 62.26747 12.13365 39236 ft 455 kts 42°
2026-04-26 14:23 62.30946 12.23509 39258 ft 452 kts 38°
2026-04-26 14:24 62.35815 12.31441 39251 ft 437 kts 25°
2026-04-26 14:24 62.41042 12.38077 39235 ft 436 kts 24°
2026-04-26 14:25 62.46255 12.44734 39234 ft 435 kts 25°
2026-04-26 14:25 62.51439 12.51472 39227 ft 434 kts 25°
2026-04-26 14:26 62.56602 12.58250 39242 ft 434 kts 25°
2026-04-26 14:26 62.61724 12.65005 39253 ft 434 kts 25°
2026-04-26 14:27 62.66892 12.71845 39240 ft 435 kts 25°
2026-04-26 14:27 62.72056 12.78709 39220 ft 435 kts 25°
2026-04-26 14:28 62.77215 12.85595 39230 ft 435 kts 25°
2026-04-26 14:28 62.82341 12.92465 39208 ft 435 kts 25°
2026-04-26 14:29 62.87505 12.99413 39212 ft 436 kts 26°
2026-04-26 14:29 62.92648 13.06484 39209 ft 440 kts 30°
2026-04-26 14:30 62.97106 13.15932 39220 ft 452 kts 44°
2026-04-26 14:30 63.01076 13.26576 39210 ft 454 kts 44°
2026-04-26 14:31 63.05062 13.37371 39203 ft 454 kts 44°
2026-04-26 14:31 63.09073 13.48159 39201 ft 455 kts 44°
2026-04-26 14:32 63.13104 13.58980 39199 ft 457 kts 44°
2026-04-26 14:32 63.17115 13.69779 39202 ft 458 kts 45°
2026-04-26 14:33 63.21158 13.80719 39179 ft 460 kts 45°
2026-04-26 14:33 63.25202 13.91722 39176 ft 460 kts 45°
2026-04-26 14:34 63.29241 14.02766 39174 ft 460 kts 45°
2026-04-26 14:34 63.33269 14.13834 39155 ft 460 kts 45°
2026-04-26 14:35 63.37255 14.24841 39166 ft 459 kts 45°
2026-04-26 14:35 63.41257 14.35945 39154 ft 459 kts 45°
2026-04-26 14:36 63.45247 14.47071 39153 ft 459 kts 45°
2026-04-26 14:36 63.49224 14.58214 39143 ft 458 kts 45°
2026-04-26 14:37 63.53164 14.69310 39134 ft 458 kts 45°
2026-04-26 14:37 63.57118 14.80498 39136 ft 458 kts 46°
2026-04-26 14:38 63.61064 14.91722 39145 ft 458 kts 46°
2026-04-26 14:38 63.65008 15.02995 39124 ft 458 kts 46°
2026-04-26 14:39 63.68916 15.14221 39112 ft 458 kts 46°
2026-04-26 14:39 63.72838 15.25548 39113 ft 458 kts 46°
2026-04-26 14:40 63.76752 15.36907 39115 ft 458 kts 46°
2026-04-26 14:40 63.80654 15.48286 39107 ft 458 kts 46°
2026-04-26 14:41 63.84518 15.59612 39106 ft 457 kts 46°
2026-04-26 14:41 63.88397 15.71041 39104 ft 457 kts 46°
2026-04-26 14:42 63.92268 15.82503 39112 ft 458 kts 46°
2026-04-26 14:42 63.96140 15.94025 39095 ft 459 kts 46°
2026-04-26 14:43 64.00005 16.05591 39093 ft 459 kts 46°
2026-04-26 14:43 64.03839 16.17121 39096 ft 459 kts 47°
2026-04-26 14:44 64.07692 16.28768 39090 ft 460 kts 47°
2026-04-26 14:44 64.11541 16.40462 39073 ft 460 kts 47°
2026-04-26 14:45 64.15382 16.52193 39069 ft 461 kts 47°
2026-04-26 14:45 64.19191 16.63887 39070 ft 460 kts 47°
2026-04-26 14:46 64.23013 16.75684 39049 ft 461 kts 47°
2026-04-26 14:46 64.26829 16.87524 39045 ft 460 kts 47°
2026-04-26 14:47 64.30635 16.99395 39056 ft 461 kts 47°
2026-04-26 14:47 64.34441 17.11329 39043 ft 462 kts 48°
2026-04-26 14:48 64.38212 17.23220 39027 ft 462 kts 48°
2026-04-26 14:48 64.41998 17.35219 39032 ft 462 kts 48°
2026-04-26 14:49 64.45772 17.47244 39034 ft 461 kts 48°
2026-04-26 14:49 64.49533 17.59292 39017 ft 461 kts 48°
2026-04-26 14:50 64.53258 17.71279 39021 ft 461 kts 49°
2026-04-26 14:50 64.57474 17.82230 39027 ft 450 kts 36°
2026-04-26 14:51 64.62212 17.91748 39014 ft 449 kts 35°
2026-04-26 14:51 64.66956 18.01251 39006 ft 450 kts 36°
2026-04-26 14:52 64.71642 18.10797 39020 ft 450 kts 36°
2026-04-26 14:52 64.76350 18.20502 39007 ft 451 kts 37°
2026-04-26 14:53 64.81049 18.30258 39021 ft 451 kts 37°
2026-04-26 14:53 64.85747 18.40058 39005 ft 452 kts 37°
2026-04-26 14:54 64.90415 18.49838 39000 ft 452 kts 37°
2026-04-26 14:54 64.95106 18.59716 39001 ft 452 kts 37°
2026-04-26 14:55 64.99796 18.69638 38994 ft 453 kts 37°
2026-04-26 14:55 65.04485 18.79607 38988 ft 453 kts 37°
2026-04-26 14:56 65.09168 18.89614 38997 ft 454 kts 38°
2026-04-26 14:56 65.13814 18.99589 39001 ft 454 kts 38°
2026-04-26 14:57 65.18490 19.09680 38989 ft 454 kts 38°
2026-04-26 14:57 65.23162 19.19812 38993 ft 454 kts 38°
2026-04-26 14:58 65.27822 19.29969 38980 ft 454 kts 38°
2026-04-26 14:58 65.32446 19.40098 38981 ft 454 kts 38°
2026-04-26 14:59 65.37096 19.50334 38991 ft 454 kts 38°
2026-04-26 14:59 65.41745 19.60619 38973 ft 455 kts 38°
2026-04-26 15:00 65.46393 19.70954 38987 ft 455 kts 39°
2026-04-26 15:00 65.51002 19.81256 38974 ft 455 kts 39°
2026-04-26 15:01 65.55637 19.91670 38959 ft 455 kts 39°
2026-04-26 15:01 65.60265 20.02119 38964 ft 455 kts 39°
2026-04-26 15:02 65.64885 20.12604 38952 ft 455 kts 39°
2026-04-26 15:02 65.69472 20.23066 38941 ft 456 kts 39°
2026-04-26 15:03 65.74079 20.33631 38943 ft 455 kts 39°
2026-04-26 15:03 65.78680 20.44234 38941 ft 455 kts 39°
2026-04-26 15:04 65.83270 20.54870 38943 ft 455 kts 39°
2026-04-26 15:04 65.87828 20.65476 38942 ft 456 kts 40°
2026-04-26 15:05 65.92312 20.76464 38939 ft 458 kts 44°
2026-04-26 15:05 65.96469 20.88320 38942 ft 459 kts 46°
2026-04-26 15:06 66.00564 21.00346 38938 ft 459 kts 46°
2026-04-26 15:06 66.04677 21.12347 38955 ft 459 kts 46°
2026-04-26 15:07 66.10843 21.30264 38946 ft 459 kts 46°
2026-04-26 15:07 66.14973 21.42318 38935 ft 460 kts 46°
2026-04-26 15:08 66.19091 21.54411 38937 ft 460 kts 46°
2026-04-26 15:08 66.23203 21.66557 38934 ft 460 kts 46°
2026-04-26 15:09 66.27281 21.78670 38932 ft 460 kts 46°
2026-04-26 15:09 66.31382 21.90914 38676 ft 465 kts 47°
2026-04-26 15:10 66.33457 21.97135 38077 ft 466 kts 47°
2026-04-26 15:10 66.34824 22.01247 37683 ft 465 kts 47°
2026-04-26 15:10 66.37571 22.09533 36856 ft 463 kts 47°
2026-04-26 15:10 66.39617 22.15724 36248 ft 462 kts 46°
2026-04-26 15:11 66.41772 22.21587 35681 ft 457 kts 41°
2026-04-26 15:11 66.44042 22.27033 35066 ft 448 kts 39°
2026-04-26 15:11 66.46288 22.32235 34208 ft 446 kts 39°
2026-04-26 15:11 66.48574 22.37486 33138 ft 446 kts 38°
2026-04-26 15:12 66.50853 22.42753 32051 ft 445 kts 38°
2026-04-26 15:12 66.53112 22.48033 30987 ft 443 kts 38°
2026-04-26 15:12 66.55347 22.53315 29990 ft 439 kts 38°
2026-04-26 15:12 66.57542 22.58551 29057 ft 430 kts 39°
2026-04-26 15:13 66.59682 22.63685 28099 ft 421 kts 39°
2026-04-26 15:13 66.61781 22.68739 27187 ft 413 kts 40°
2026-04-26 15:13 66.63837 22.73701 26291 ft 406 kts 40°
2026-04-26 15:13 66.65826 22.78512 25444 ft 398 kts 40°
2026-04-26 15:14 66.67804 22.83305 24616 ft 391 kts 40°
2026-04-26 15:14 66.69745 22.88019 23801 ft 384 kts 40°
2026-04-26 15:14 66.71649 22.92653 22892 ft 377 kts 41°
2026-04-26 15:14 66.73525 22.97228 21892 ft 372 kts 41°
2026-04-26 15:15 66.75386 23.01772 21257 ft 370 kts 41°
2026-04-26 15:15 66.77227 23.06281 20669 ft 366 kts 41°
2026-04-26 15:15 66.79045 23.10744 20194 ft 362 kts 41°
2026-04-26 15:15 66.80844 23.15170 19691 ft 358 kts 41°
2026-04-26 15:16 66.82599 23.19496 19208 ft 355 kts 41°
2026-04-26 15:16 66.84360 23.23847 18725 ft 352 kts 42°
2026-04-26 15:16 66.86109 23.28178 18235 ft 350 kts 42°
2026-04-26 15:16 66.87843 23.32483 17701 ft 347 kts 42°
2026-04-26 15:17 66.89561 23.36753 17237 ft 344 kts 42°
2026-04-26 15:17 66.90693 23.39573 16916 ft 344 kts 42°
2026-04-26 15:17 66.92927 23.45148 16299 ft 343 kts 42°
2026-04-26 15:17 66.94643 23.49440 15813 ft 347 kts 42°
2026-04-26 15:18 66.96364 23.53756 15337 ft 346 kts 42°
2026-04-26 15:18 66.98049 23.57989 14852 ft 343 kts 43°
2026-04-26 15:18 66.99738 23.62245 14387 ft 339 kts 42°
2026-04-26 15:18 67.01412 23.66470 13917 ft 336 kts 42°
2026-04-26 15:19 67.03069 23.70661 13419 ft 334 kts 43°
2026-04-26 15:19 67.04713 23.74826 12950 ft 330 kts 42°
2026-04-26 15:19 67.06334 23.78942 12477 ft 326 kts 42°
2026-04-26 15:19 67.07938 23.83023 12021 ft 324 kts 42°
2026-04-26 15:20 67.09508 23.87024 11575 ft 321 kts 42°
2026-04-26 15:20 67.11084 23.91047 11117 ft 318 kts 43°
2026-04-26 15:20 67.12648 23.95047 10673 ft 316 kts 43°
2026-04-26 15:20 67.14174 23.98963 10600 ft 302 kts 43°
2026-04-26 15:21 67.15632 24.02714 10547 ft 293 kts 43°
2026-04-26 15:21 67.17064 24.06397 10425 ft 289 kts 43°
2026-04-26 15:21 67.18471 24.10022 10315 ft 283 kts 42°
2026-04-26 15:21 67.19838 24.13553 10194 ft 274 kts 43°
2026-04-26 15:22 67.21141 24.16923 10080 ft 265 kts 43°
2026-04-26 15:22 67.22427 24.20255 9857 ft 261 kts 43°
2026-04-26 15:22 67.23700 24.23556 9604 ft 258 kts 42°
2026-04-26 15:22 67.24965 24.26840 9318 ft 257 kts 43°
2026-04-26 15:23 67.26218 24.30097 9032 ft 255 kts 43°
2026-04-26 15:23 67.27461 24.33336 8770 ft 253 kts 43°
2026-04-26 15:23 67.28694 24.36553 8490 ft 251 kts 43°
2026-04-26 15:23 67.29919 24.39756 8222 ft 249 kts 43°
2026-04-26 15:24 67.31133 24.42936 7944 ft 248 kts 43°
2026-04-26 15:24 67.32339 24.46099 7687 ft 246 kts 43°
2026-04-26 15:24 67.33523 24.49208 7431 ft 245 kts 43°
2026-04-26 15:24 67.34714 24.52341 7159 ft 244 kts 42°
2026-04-26 15:25 67.35906 24.55482 6892 ft 244 kts 42°
2026-04-26 15:25 67.36693 24.57555 6733 ft 243 kts 43°
2026-04-26 15:25 67.38273 24.61729 6382 ft 241 kts 43°
2026-04-26 15:25 67.39447 24.64838 6109 ft 240 kts 43°
2026-04-26 15:26 67.40615 24.67934 5845 ft 239 kts 42°
2026-04-26 15:26 67.41780 24.71026 5575 ft 239 kts 43°
2026-04-26 15:26 67.42936 24.74102 5331 ft 237 kts 42°
2026-04-26 15:26 67.44087 24.77164 5068 ft 237 kts 42°
2026-04-26 15:27 67.45220 24.80184 4824 ft 235 kts 42°
2026-04-26 15:27 67.46341 24.83176 4729 ft 227 kts 42°
2026-04-26 15:27 67.47425 24.86076 4622 ft 220 kts 42°
2026-04-26 15:27 67.48471 24.88880 4534 ft 211 kts 42°
2026-04-26 15:28 67.49459 24.91535 4454 ft 198 kts 41°
2026-04-26 15:28 67.50383 24.94020 4355 ft 184 kts 41°
2026-04-26 15:28 67.51411 24.95615 4234 ft 168 kts
2026-04-26 15:28 67.52562 24.95172 4239 ft 170 kts 350°
2026-04-26 15:29 67.53719 24.94680 4123 ft 169 kts 352°
2026-04-26 15:29 67.54849 24.94311 4010 ft 157 kts 352°
2026-04-26 15:29 67.56928 24.93253 3584 ft 151 kts 347°
2026-04-26 15:30 67.58976 24.91944 3118 ft 152 kts 346°
2026-04-26 15:30 67.60000 24.91275 2879 ft 151 kts 346°
2026-04-26 15:30 67.61006 24.90618 2627 ft 147 kts 346°
2026-04-26 15:31 67.61977 24.89987 2419 ft 140 kts 346°
2026-04-26 15:31 67.63832 24.88774 1966 ft 138 kts 345°
2026-04-26 15:31 67.64749 24.88177 1736 ft 133 kts 345°
2026-04-26 15:32 67.65927 24.87435 1423 ft 131 kts 345°
2026-04-26 15:32 67.67439 24.86425 1064 ft 141 kts 346°
2026-04-26 15:32 67.68394 24.85807 825 ft 141 kts 345°
2026-04-26 15:33 67.69319 24.85195 649 ft 131 kts 346°
2026-04-26 15:33 67.70027 24.84735 640 ft 73 kts 346°
2026-04-26 15:33 67.70338 24.84534 640 ft 36 kts 346°
2026-04-26 15:33 67.70573 24.84381 639 ft 33 kts 346°
2026-04-26 15:34 67.70719 24.84454 639 ft 20 kts 60°
2026-04-26 15:34 67.70696 24.84743 639 ft 18 kts 163°
2026-04-26 15:34 67.70575 24.84829 639 ft 18 kts 167°
2026-04-26 15:34 67.70456 24.84902 638 ft 17 kts 166°
2026-04-26 15:35 67.70342 24.84976 640 ft 17 kts 166°
2026-04-26 15:35 67.70232 24.85048 639 ft 16 kts 166°
2026-04-26 15:35 67.70128 24.85116 640 ft 15 kts 166°
2026-04-26 15:35 67.70027 24.85182 640 ft 15 kts 166°
2026-04-26 15:36 67.69929 24.85246 639 ft 14 kts 166°
2026-04-26 15:36 67.69836 24.85307 639 ft 13 kts 165°
2026-04-26 15:36 67.69758 24.85371 638 ft 7 kts 154°
2026-04-26 15:36 67.69752 24.85467 640 ft 1 kts 77°
2026-04-26 15:37 67.69755 24.85499 637 ft 3 kts 76°
2026-04-26 15:37 67.69760 24.85553 638 ft 1 kts 76°
2026-04-26 15:37 67.69761 24.85558 643 ft 0 kts 76°
2026-04-26 15:38 67.69760 24.85558 643 ft 0 kts 76°
2026-04-26 15:41 67.69761 24.85558 636 ft 0 kts 76°
2026-04-26 15:41 67.69760 24.85558 636 ft 0 kts 76°
2026-04-26 15:43 67.69761 24.85558 636 ft 0 kts 76°
2026-04-26 15:44 67.69760 24.85558 636 ft 0 kts 76°